Device Time, Air Fuel Ratio(Commanded)(:1),Air Fuel Ratio(Measured)(:1),Ambient air temp(°F),Barometric pressure (from vehicle)(psi),Catalyst Temperature (Bank 1 Sensor 1)(°F),Engine Coolant Temperature(°F),Engine Load(%),Engine Load(Absolute)(%),Engine RPM(rpm),Fuel Rail Pressure(psi),Fuel Trim Bank 1 Long Term(%),Fuel Trim Bank 1 Short Term(%),Intake Air Temperature(°F),Intake Manifold Pressure(psi),Throttle Position(Manifold)(%),Timing Advance(°)
04-Jun-2023 11:02:01.526,14.69999981,-,141.8,14.5037738,1500.07995605,188.6,38.82352829,82.7450943,2349.5,1583.81209896,-15.625,14.0625,114.8,14.79384928,24.31372643,29
04-Jun-2023 11:02:01.625,14.69999981,-,141.8,14.5037738,1500.07995605,188.6,38.4313736,81.96078491,2395.5,1583.81209896,-15.625,13.28125,114.8,14.79384928,24.31372643,30
04-Jun-2023 11:02:01.726,14.69999981,-,141.8,14.5037738,1500.07995605,188.6,38.4313736,81.5686264,2395.5,1570.75870254,-15.625,13.28125,114.8,14.64881154,24.31372643,30
04-Jun-2023 11:02:01.826,14.69999981,-,141.8,14.5037738,1500.07995605,188.6,38.4313736,81.1764679,2395.5,1563.50681564,-15.625,13.28125,114.8,14.64881154,24.31372643,30.5
04-Jun-2023 11:02:01.926,14.69999981,-,141.8,14.5037738,1500.07995605,188.6,38.03921509,81.1764679,2447.5,1553.35417398,-15.625,12.5,114.8,14.5037738,24.31372643,30.5
04-Jun-2023 11:02:02.025,14.69999981,-,141.8,14.5037738,1500.07995605,188.6,37.64706039,80.39215851,2499,1553.35417398,-15.625,12.5,114.8,14.5037738,24.31372643,31.5
04-Jun-2023 11:02:02.126,14.69999981,-,141.8,14.5037738,1500.07995605,188.6,36.86274338,79.21568298,2499,1537.4000228,-15.625,13.28125,114.8,14.5037738,24.31372643,33
04-Jun-2023 11:02:02.226,14.69999981,-,141.8,14.5037738,1500.07995605,188.6,36.47058868,78.03921509,2539,1506.94209782,-15.625,13.28125,114.8,14.35873606,24.31372643,33
04-Jun-2023 11:02:02.326,14.69999981,-,141.8,14.5037738,1500.07995605,188.6,35.68627548,76.47058868,2539,1493.8887014,-15.625,13.28125,114.8,14.21369832,24.31372643,33
04-Jun-2023 11:02:02.426,14.69999981,-,141.8,14.5037738,1500.07995605,190.4,35.68627548,72.54901886,2539,1435.8736062,-15.625,14.0625,114.8,14.21369832,24.31372643,34.5
04-Jun-2023 11:02:02.527,14.69999981,-,141.8,14.5037738,1500.07995605,190.4,33.72549057,72.54901886,2579.5,1435.8736062,-15.625,15.625,114.8,13.63354737,23.13725471,34.5
04-Jun-2023 11:02:02.626,14.69999981,-,141.8,14.5037738,1505.83997803,190.4,32.94117737,70.58823395,2628,1382.20964314,-15.625,15.625,114.8,13.48850963,23.13725471,34.5
04-Jun-2023 11:02:02.726,14.69999981,-,141.8,14.5037738,1505.83997803,190.4,32.94117737,70.19607544,2628,1343.04945388,-15.625,15.625,114.8,13.3434719,23.13725471,35
04-Jun-2023 11:02:02.826,14.69999981,-,141.8,14.5037738,1505.83997803,190.4,32.94117737,69.01960754,2628,1309.69077414,-15.625,15.625,114.8,13.3434719,23.13725471,35
04-Jun-2023 11:02:02.927,14.69999981,-,141.8,14.5037738,1505.83997803,190.4,32.94117737,69.01960754,2628,1309.69077414,-15.625,15.625,114.8,13.05339642,23.13725471,35
04-Jun-2023 11:02:03.026,14.69999981,-,141.8,14.5037738,1505.83997803,190.4,32.94117737,69.01960754,2661.5,1309.69077414,-15.625,15.625,114.8,13.05339642,23.13725471,35
04-Jun-2023 11:02:03.127,14.69999981,-,141.8,14.5037738,1505.83997803,190.4,29.01960754,69.01960754,2661.5,1309.69077414,-15.625,15.625,114.8,13.05339642,23.13725471,37.5
04-Jun-2023 11:02:03.226,14.69999981,-,141.8,14.5037738,1505.83997803,190.4,25.49019623,58.03921509,2722.5,1054.42435526,-15.625,15.625,114.8,10.87783035,22.35294151,37.5
04-Jun-2023 11:02:03.326,14.69999981,-,141.8,14.5037738,1505.83997803,190.4,25.49019623,52.54901886,2722.5,987.70699578,-15.625,15.625,114.8,10.2976794,20.7843132,38
04-Jun-2023 11:02:03.426,14.69999981,-,141.8,14.5037738,1505.83997803,190.4,23.92156792,50.58823395,2722.5,912.28737202,-15.625,15.625,114.8,10.2976794,20.7843132,38
04-Jun-2023 11:02:03.526,14.69999981,-,141.8,14.5037738,1505.83997803,190.4,23.52941132,50.19607925,2758.5,858.62340896,-15.625,14.84375,114.8,10.00760392,20.7843132,38
04-Jun-2023 11:02:03.627,14.69999981,-,141.8,14.5037738,1505.83997803,190.4,23.52941132,50.19607925,2758.5,836.86774826,-15.625,14.84375,114.8,10.00760392,20.7843132,38
04-Jun-2023 11:02:03.730,14.69999981,-,141.8,14.5037738,1505.83997803,190.4,20.7843132,46.66666794,2788.5,836.86774826,-15.625,14.84375,113,9.28241523,20.7843132,40.5
04-Jun-2023 11:02:03.826,14.69999981,-,141.8,14.5037738,1510.7,190.4,20.7843132,42.74509811,2788.5,822.36397446,-15.625,14.84375,113,9.28241523,20.7843132,40.5
04-Jun-2023 11:02:03.926,14.69999981,-,141.8,14.5037738,1510.7,190.4,19.6078434,42.74509811,2797,822.36397446,-15.625,13.28125,113,8.70226428,19.6078434,42
04-Jun-2023 11:02:04.026,14.69999981,-,141.8,14.5037738,1510.7,190.4,19.2156868,41.5686264,2823,804.9594459,-15.625,13.28125,113,8.55722654,19.6078434,42
04-Jun-2023 11:02:04.126,14.69999981,-,141.8,14.5037738,1510.7,190.4,19.2156868,41.5686264,2823,789.00529472,-15.625,13.28125,113,8.55722654,20,41
04-Jun-2023 11:02:04.226,14.69999981,-,141.8,14.5037738,1510.7,190.4,19.2156868,41.5686264,2823,774.50152092,-15.625,13.28125,113,8.55722654,20,42
04-Jun-2023 11:02:04.326,14.69999981,-,141.8,14.5037738,1510.7,190.4,19.6078434,41.5686264,2842.5,771.60076616,-15.625,12.5,113,8.55722654,20,42
04-Jun-2023 11:02:04.427,14.69999981,-,141.8,14.5037738,1510.7,190.4,19.2156868,41.5686264,2842.5,806.40982328,-15.625,12.5,113,8.55722654,20.3921566,37.5
04-Jun-2023 11:02:04.526,14.69999981,-,141.8,14.5037738,1510.7,190.4,40.39215851,47.84313583,2858,806.40982328,-15.625,12.5,113,12.32820773,20.3921566,29
04-Jun-2023 11:02:04.627,14.44877911,-,141.8,14.5037738,1510.7,190.4,53.33333206,99.60784149,2967,944.19567438,-15.625,12.5,113,17.11445308,20.3921566,15.5
04-Jun-2023 11:02:04.726,14.11501503,-,141.8,14.5037738,1510.7,190.4,53.33333206,118.8235321,2967,1092.13416714,-15.625,12.5,113,18.85490594,66.27451324,15.5
04-Jun-2023 11:02:04.828,14.11501503,-,141.8,14.5037738,1510.7,190.4,57.25490189,118.8235321,2967,1092.13416714,-15.625,12.5,113,18.85490594,66.27451324,15.5
04-Jun-2023 11:02:04.927,14.11501503,-,141.8,14.5037738,1510.7,190.4,57.25490189,118.8235321,2967,1092.13416714,-15.625,13.28125,113,18.85490594,66.27451324,15.5
04-Jun-2023 11:02:05.026,13.35417461,-,141.8,14.5037738,1510.7,190.4,57.25490189,144.3137207,2967,1560.60606088,-16.40625,13.28125,113,18.85490594,48.62745285,16.5
04-Jun-2023 11:02:05.126,13.35417461,-,141.8,14.5037738,1510.7,190.4,68.23529053,144.3137207,3106,1560.60606088,-16.40625,16.40625,113,23.06100034,71.76470947,15
04-Jun-2023 11:02:05.227,13.11372089,-,141.8,14.5037738,1516.63997803,190.4,69.80392456,150.98039246,3186.5,1834.7273857,-16.40625,16.40625,113,23.93122677,71.76470947,15
04-Jun-2023 11:02:05.326,12.93786621,-,141.8,14.5037738,1516.63997803,190.4,69.80392456,156.47058105,3186.5,2043.58172842,-16.40625,17.1875,113,24.36633998,82.7450943,13.5
04-Jun-2023 11:02:05.427,12.93786621,-,141.8,14.5037738,1516.63997803,190.4,71.37255096,156.47058105,3186.5,2242.28342948,-16.40625,17.1875,113,24.36633998,84.31372833,13.5
04-Jun-2023 11:02:05.526,12.81584454,-,141.8,14.5037738,1516.63997803,190.4,72.54901886,161.56863403,3299.5,2242.28342948,-16.40625,16.40625,113,24.94649094,84.31372833,12
04-Jun-2023 11:02:05.626,12.68664551,-,141.8,14.5037738,1516.63997803,190.4,74.50980377,165.88235474,3389.5,2430.83248888,-16.40625,15.625,113,25.67167963,84.31372833,12
04-Jun-2023 11:02:05.727,12.58615685,-,141.8,14.5037738,1516.63997803,190.4,74.50980377,172.54902649,3389.5,2571.51909474,-16.40625,15.625,113,26.25183058,83.92156982,12
04-Jun-2023 11:02:05.826,12.47849083,-,141.8,14.5037738,1516.63997803,190.4,75.68627167,172.54902649,3389.5,2588.9236233,-16.40625,14.84375,113,26.25183058,84.31372833,10.5
04-Jun-2023 11:02:05.926,12.47849083,-,141.8,14.5037738,1516.63997803,190.4,78.03921509,180.39215088,3508.5,2662.89286968,-16.40625,14.0625,113,27.41213248,84.31372833,10.5
04-Jun-2023 11:02:06.025,12.40671349,-,141.8,14.5037738,1516.63997803,190.4,81.1764679,185.09803772,3613,2662.89286968,-16.40625,14.84375,113,28.13732117,84.31372833,9
04-Jun-2023 11:02:06.126,12.32775879,-,141.8,14.5037738,1516.63997803,190.4,82.35294342,189.01960754,3613,2649.83947326,-16.40625,14.84375,113,28.86250986,84.31372833,9
04-Jun-2023 11:02:06.227,12.27751446,-,141.8,14.5037738,1516.63997803,190.4,82.35294342,193.33332825,3736,2680.29739824,-16.40625,14.0625,113,29.44266081,84.31372833,6.5
04-Jun-2023 11:02:06.326,12.23803711,-,141.8,14.5037738,1516.63997803,190.4,83.92156982,194.5098114,3736,2686.09890776,-16.40625,14.0625,113,29.73273629,83.92156982,7.5
04-Jun-2023 11:02:06.426,12.23803711,-,141.8,14.5037738,1516.63997803,190.4,83.92156982,194.5098114,3736,2707.85456846,-16.40625,13.28125,113,29.73273629,83.92156982,7.5
04-Jun-2023 11:02:06.526,12.20214844,-,141.8,14.5037738,1516.63997803,190.4,84.70587921,196.07843018,3854,2707.85456846,-16.40625,13.28125,113,30.31288724,83.92156982,7.5
04-Jun-2023 11:02:06.626,12.17343712,-,141.8,14.5037738,1516.63997803,190.4,84.70587921,196.47058105,3854,2720.90796488,-16.40625,13.28125,113,30.60296272,83.92156982,7.5
04-Jun-2023 11:02:06.726,12.17343712,-,141.8,14.5037738,1516.63997803,190.4,84.70587921,196.47058105,3854,2720.90796488,-16.40625,13.28125,113,30.60296272,83.92156982,7.5
04-Jun-2023 11:02:06.826,12.17343712,-,141.8,14.5037738,1516.63997803,190.4,84.70587921,196.47058105,3953.5,2720.90796488,-16.40625,13.28125,113,30.60296272,83.92156982,7.5
04-Jun-2023 11:02:06.926,12.11960411,-,141.8,14.5037738,1516.63997803,190.4,85.49019623,196.47058105,3953.5,2741.2132482,-16.40625,14.0625,113,30.60296272,84.31372833,8
04-Jun-2023 11:02:07.025,12.11960411,-,141.8,14.5037738,1516.63997803,190.4,85.09803772,196.86274719,4103.5,2741.2132482,-16.40625,13.28125,113,30.89303819,84.31372833,8
04-Jun-2023 11:02:07.127,12.10165977,-,141.8,14.5037738,1516.63997803,190.4,85.09803772,195.6862793,4183,2736.86211606,-16.40625,13.28125,113,31.32815141,84.31372833,8
04-Jun-2023 11:02:07.226,12.10165977,-,141.8,14.5037738,1516.63997803,190.4,84.70587921,195.6862793,4183,2736.86211606,-16.40625,13.28125,113,31.32815141,84.31372833,7.5
04-Jun-2023 11:02:07.326,12.09448242,-,141.8,14.5037738,1516.63997803,190.4,84.70587921,196.07843018,4276.5,2755.717022,-16.40625,13.28125,113,31.47318915,84.31372833,7.5
04-Jun-2023 11:02:07.426,12.09448242,-,141.8,14.5037738,1516.63997803,190.4,84.70587921,196.07843018,4276.5,2755.717022,-16.40625,14.0625,109.4,31.47318915,84.31372833,8
04-Jun-2023 11:02:07.525,12.08012676,-,141.8,14.5037738,1583.6,190.4,84.70587921,196.47058105,4397.5,2765.86966366,-16.40625,14.0625,109.4,32.0533401,84.31372833,8
04-Jun-2023 11:02:07.628,12.07653809,-,141.8,14.5037738,1583.6,190.4,85.49019623,198.8235321,4397.5,2755.717022,-16.40625,13.28125,109.4,32.0533401,83.92156982,9
04-Jun-2023 11:02:07.728,12.07653809,-,141.8,14.5037738,1583.6,190.4,86.27451324,198.8235321,4523.5,2758.61777676,-16.40625,13.28125,109.4,32.63349105,83.92156982,9
04-Jun-2023 11:02:07.826,12.07294941,-,141.8,14.5037738,1583.6,190.4,86.66666412,200,4605.5,2758.61777676,-16.40625,13.28125,109.4,32.77852879,83.92156982,9
04-Jun-2023 11:02:07.927,12.06936073,-,141.8,14.5037738,1583.6,190.4,86.66666412,201.1764679,4605.5,2781.82381484,-16.40625,13.28125,109.4,33.06860426,84.31372833,9
04-Jun-2023 11:02:08.026,12.06936073,-,141.8,14.5037738,1583.6,190.4,87.45098114,201.1764679,4605.5,2762.9689089,-16.40625,13.28125,109.4,33.06860426,83.92156982,9
04-Jun-2023 11:02:08.126,12.06936073,-,141.8,14.5037738,1583.6,190.4,87.84313965,201.96078491,4738.5,2762.9689089,-16.40625,12.5,109.4,33.213642,83.92156982,8
04-Jun-2023 11:02:08.226,12.0657711,-,141.8,14.5037738,1583.6,190.4,87.84313965,203.92156982,4821.5,2760.06815414,-16.40625,12.5,109.4,33.06860426,83.92156982,8
04-Jun-2023 11:02:08.326,12.06218243,-,141.8,14.5037738,1583.6,190.4,87.84313965,200.78431702,4821.5,2770.2207958,-16.40625,10.9375,109.4,33.06860426,83.92156982,8
04-Jun-2023 11:02:08.426,12.06218243,-,141.8,14.5037738,1583.6,190.4,85.49019623,200.78431702,4821.5,2770.2207958,-16.40625,10.15625,109.4,32.19837784,45.88235474,8
04-Jun-2023 11:02:08.527,12.06218243,-,141.8,14.5037738,1583.6,190.4,85.49019623,200.78431702,4821.5,2816.63287196,-16.40625,10.15625,109.4,32.19837784,45.88235474,8
04-Jun-2023 11:02:08.626,12.06218243,-,141.8,14.5037738,1583.6,190.4,85.49019623,200.78431702,4821.5,2816.63287196,-16.40625,10.15625,109.4,32.19837784,45.88235474,8
04-Jun-2023 11:02:08.728,12.06218243,-,141.8,14.5037738,1583.6,192.2,86.27451324,198.8235321,4995,2816.63287196,-16.40625,7.03125,109.4,32.48845331,45.88235474,8
04-Jun-2023 11:02:08.826,12.06218243,-,141.8,14.5037738,1621.93997803,192.2,86.27451324,198.8235321,4995,2807.93060768,-16.40625,7.03125,107.6,32.48845331,49.41176605,12
04-Jun-2023 11:02:08.926,12.06218243,-,141.8,14.5037738,1621.93997803,192.2,86.66666412,202.35293579,5115,2807.93060768,-16.40625,6.25,107.6,32.48845331,84.70587921,12
04-Jun-2023 11:02:09.025,12.05859375,-,141.8,14.5037738,1621.93997803,192.2,86.27451324,203.92156982,5243.5,2807.93060768,-16.40625,5.46875,107.6,32.63349105,84.70587921,12
04-Jun-2023 11:02:09.126,12.05859375,-,141.8,14.5037738,1621.93997803,192.2,86.27451324,205.09803772,5243.5,2828.235891,-16.40625,5.46875,107.6,33.06860426,84.31372833,11
04-Jun-2023 11:02:09.226,12.05859375,-,141.8,14.5037738,1621.93997803,192.2,86.66666412,206.66667175,5243.5,2807.93060768,-16.40625,3.90625,107.6,33.06860426,84.31372833,11
04-Jun-2023 11:02:09.326,12.05859375,-,141.8,14.5037738,1621.93997803,192.2,87.05882263,206.66667175,5340,2807.93060768,-16.40625,3.125,107.6,33.06860426,84.31372833,11
04-Jun-2023 11:02:09.426,12.05859375,-,141.8,14.5037738,1621.93997803,192.2,87.84313965,209.41175842,5462.5,2834.03740052,-16.40625,3.125,107.6,33.35867974,84.31372833,11
04-Jun-2023 11:02:09.526,12.05859375,-,141.8,14.5037738,1621.93997803,192.2,87.84313965,212.15686035,5462.5,2828.235891,-16.40625,1.5625,107.6,33.64875522,84.31372833,11
04-Jun-2023 11:02:09.627,12.05859375,-,141.8,14.5037738,1621.93997803,192.2,88.23529053,214.11764526,5462.5,2835.4877779,-16.40625,1.5625,107.6,34.08386843,84.31372833,12
04-Jun-2023 11:02:09.726,12.05859375,-,141.8,14.5037738,1621.93997803,192.2,89.41176605,214.11764526,5546,2835.4877779,-16.40625,0,107.6,34.08386843,84.31372833,12
04-Jun-2023 11:02:09.826,12.05859375,-,141.8,14.5037738,1621.93997803,192.2,90.98039246,218.03921509,5650.5,2841.28928742,-16.40625,0,107.6,34.22890617,84.31372833,12.5
04-Jun-2023 11:02:09.926,12.05859375,-,141.8,14.5037738,1621.93997803,192.2,89.41176605,220,5650.5,2835.4877779,-16.40625,-0.78125,107.6,33.50371748,84.31372833,12.5
04-Jun-2023 11:02:10.026,12.05859375,-,141.8,14.5037738,1621.93997803,192.2,89.41176605,213.33332825,5761.5,2873.19758978,-16.40625,-0.78125,107.6,32.77852879,84.31372833,12.5
04-Jun-2023 11:02:10.128,12.05859375,-,141.8,14.5037738,1621.93997803,192.2,87.05882263,210.58824158,5761.5,2881.89985406,-16.40625,0,107.6,32.48845331,49.80392075,12.5
04-Jun-2023 11:02:10.226,12.05859375,-,141.8,14.5037738,1621.93997803,192.2,87.05882263,210.58824158,5761.5,2860.14419336,-16.40625,-0.78125,107.6,32.48845331,52.15686417,13.5
04-Jun-2023 11:02:10.326,12.05859375,-,141.8,14.5037738,1621.93997803,192.2,87.05882263,210.98039246,5843,2860.14419336,-16.40625,-0.78125,107.6,32.63349105,52.15686417,13.5
04-Jun-2023 11:02:10.426,12.05859375,-,141.8,14.5037738,1621.93997803,192.2,87.05882263,210.98039246,5843,2860.14419336,-16.40625,-0.78125,107.6,32.63349105,52.15686417,13.5
04-Jun-2023 11:02:10.526,12.05859375,-,141.8,14.5037738,1621.93997803,192.2,89.41176605,210.98039246,5843,2860.14419336,-16.40625,-0.78125,107.6,32.63349105,52.15686417,13.5
04-Jun-2023 11:02:10.625,12.05859375,-,141.8,14.5037738,1621.93997803,192.2,89.41176605,213.72549438,5843,2845.64041956,-16.40625,-2.34375,107.6,32.77852879,66.27451324,13.5
04-Jun-2023 11:02:10.725,12.05859375,-,141.8,14.5037738,1621.93997803,192.2,88.62744904,214.11764526,6049.5,2860.14419336,-16.40625,-0.78125,107.6,32.77852879,66.27451324,14
04-Jun-2023 11:02:10.826,12.05859375,-,141.8,14.5037738,1621.93997803,192.2,89.01960754,214.11764526,6049.5,2832.58702314,-16.40625,-2.34375,107.6,32.77852879,84.70587921,14
04-Jun-2023 11:02:10.926,12.05859375,-,141.8,14.5037738,1621.93997803,192.2,89.01960754,215.29411316,6145,2857.2434386,-16.40625,-1.5625,107.6,32.77852879,84.70587921,14
04-Jun-2023 11:02:11.025,12.05859375,-,141.8,14.5037738,1621.93997803,194,89.01960754,215.6862793,6230.5,2857.2434386,-16.40625,-3.125,107.6,32.92356653,84.70587921,14
04-Jun-2023 11:02:11.125,12.05859375,-,141.8,14.5037738,1623.37995605,194,89.01960754,215.6862793,6230.5,2847.09079694,-16.40625,-3.125,107.6,32.92356653,84.31372833,15
04-Jun-2023 11:02:11.229,12.05859375,-,141.8,14.5037738,1623.37995605,194,89.01960754,215.29411316,6325,2847.09079694,-16.40625,-3.125,107.6,32.63349105,84.31372833,15
04-Jun-2023 11:02:11.326,12.05859375,-,141.8,14.5037738,1623.37995605,194,89.01960754,215.29411316,6325,2845.64041956,-16.40625,-3.125,107.6,32.48845331,83.92156982,15
04-Jun-2023 11:02:11.426,12.05859375,-,141.8,14.5037738,1623.37995605,194,89.01960754,214.11764526,6325,2836.93815528,-16.40625,-3.125,107.6,32.48845331,83.92156982,15
04-Jun-2023 11:02:11.526,12.05859375,-,141.8,14.5037738,1623.37995605,194,88.62744904,214.11764526,6403,2839.83891004,-16.40625,-3.125,107.6,32.48845331,83.92156982,15
04-Jun-2023 11:02:11.626,12.05859375,-,141.8,14.5037738,1623.37995605,194,88.23529053,214.11764526,6403,2838.38853266,-16.40625,-3.90625,107.6,32.48845331,84.31372833,15
04-Jun-2023 11:02:11.726,12.05859375,-,141.8,14.5037738,1623.37995605,194,87.45098114,212.94117737,6489,2838.38853266,-16.40625,-3.90625,107.6,32.19837784,84.31372833,16.5
04-Jun-2023 11:02:11.826,12.05859375,-,141.8,14.5037738,1623.37995605,194,87.45098114,211.37254333,6594.5,2847.09079694,-16.40625,-3.90625,107.6,32.19837784,84.31372833,16.5
04-Jun-2023 11:02:11.926,12.05859375,-,141.8,14.5037738,1623.37995605,194,87.05882263,210.19607544,6594.5,2838.38853266,-16.40625,-3.90625,107.6,31.90830236,84.31372833,16.5
04-Jun-2023 11:02:12.027,12.05859375,-,141.8,14.5037738,1623.37995605,194,87.05882263,210.19607544,6594.5,2838.38853266,-16.40625,-3.90625,107.6,31.90830236,84.31372833,16.5
04-Jun-2023 11:02:12.126,12.05859375,-,141.8,14.5037738,1623.37995605,194,86.27451324,209.01960754,6651.5,2864.4953255,-16.40625,-3.90625,107.6,31.76326462,84.31372833,16.5
04-Jun-2023 11:02:12.226,12.05859375,-,141.8,14.5037738,1623.37995605,194,86.27451324,209.01960754,6651.5,2864.4953255,-16.40625,-3.90625,107.6,31.76326462,84.31372833,16.5
04-Jun-2023 11:02:12.327,12.05859375,-,141.8,14.5037738,1623.37995605,194,86.27451324,209.01960754,6651.5,2864.4953255,-16.40625,-3.90625,107.6,31.76326462,84.31372833,16.5
04-Jun-2023 11:02:12.426,12.05859375,-,141.8,14.5037738,1623.37995605,194,86.27451324,207.45097351,6651.5,2844.19004218,-16.40625,-3.90625,107.6,31.76326462,84.31372833,16.5
04-Jun-2023 11:02:12.526,12.05859375,-,141.8,14.5037738,1623.37995605,194,86.66666412,207.45097351,6860,2844.19004218,-16.40625,-3.90625,107.6,31.90830236,67.45098114,10.5
04-Jun-2023 11:02:12.626,12.05859375,-,141.8,14.5037738,1603.22004395,194,86.66666412,206.66667175,6872.5,2842.7396648,-16.40625,-3.90625,107.6,31.61822688,67.45098114,10.5
04-Jun-2023 11:02:12.726,12.05859375,-,141.8,14.5037738,1603.22004395,194,85.49019623,207.05882263,6872.5,2836.93815528,-16.40625,-3.90625,107.6,31.90830236,84.70587921,10.5
04-Jun-2023 11:02:12.826,12.05859375,-,141.8,14.5037738,1603.22004395,194,85.88235474,207.05882263,6872.5,2857.2434386,-16.40625,-4.6875,107.6,31.90830236,83.92156982,15.5
04-Jun-2023 11:02:12.927,12.05859375,-,141.8,14.5037738,1603.22004395,194,85.09803772,205.88235474,6942.5,2849.9915517,-16.40625,-3.90625,107.6,31.76326462,83.92156982,15.5
04-Jun-2023 11:02:13.026,12.05859375,-,141.8,14.5037738,1603.22004395,194,87.05882263,205.09803772,6755,2554.11456618,-16.40625,0.78125,107.6,31.90830236,84.31372833,5
04-Jun-2023 11:02:13.126,12.42824745,-,141.8,14.5037738,1603.22004395,194,87.05882263,206.66667175,6755,2554.11456618,-16.40625,0.78125,107.6,31.90830236,84.31372833,5
04-Jun-2023 11:02:13.227,15.43212891,-,141.8,14.5037738,1603.22004395,194,85.09803772,204.3137207,6863,2639.6868316,-16.40625,0,107.6,30.89303819,83.92156982,-8.5
04-Jun-2023 11:02:13.326,15.43212891,-,141.8,14.5037738,1603.22004395,194,85.49019623,204.3137207,6863,2899.30438262,-16.40625,1.5625,107.6,30.89303819,83.92156982,-7.5
04-Jun-2023 11:02:13.426,29.39955139,-,141.8,14.5037738,1603.22004395,194,70.58823395,201.56863403,6825.5,2899.30438262,-16.40625,1.5625,107.6,30.1678495,83.92156982,-7.5
04-Jun-2023 11:02:13.527,29.39955139,-,141.8,14.5037738,1603.22004395,194,70.58823395,35.29411697,6825.5,2899.30438262,-16.40625,0,107.6,5.07632083,56.86274338,0
04-Jun-2023 11:02:13.627,12.53591347,-,141.8,14.5037738,1603.22004395,194,9.01960754,65.88235474,6052,2764.41928628,-16.40625,0.78125,107.6,15.08392475,30.58823586,5
04-Jun-2023 11:02:13.728,12.35647011,-,141.8,14.5037738,1603.22004395,194,39.60784149,105.49019623,6052,2629.53418994,-16.40625,1.5625,107.6,20.5953588,30.58823586,18.5
04-Jun-2023 11:02:13.827,12.35647011,-,141.8,14.5037738,1603.22004395,194,55.68627548,105.49019623,6052,2722.35834226,-16.40625,8.59375,107.6,20.5953588,84.70587921,17
04-Jun-2023 11:02:13.928,12.29545879,-,141.8,14.5037738,1603.22004395,194,83.13725281,178.03921509,5292,2722.35834226,-16.40625,7.03125,107.6,31.32815141,84.70587921,8
04-Jun-2023 11:02:14.027,12.23444843,-,141.8,14.5037738,1603.22004395,194,83.13725281,178.03921509,5292,2665.79362444,-16.40625,7.03125,107.6,31.32815141,84.70587921,8
04-Jun-2023 11:02:14.128,12.23444843,-,141.8,14.5037738,1603.22004395,194,83.13725281,207.84313965,5292,2665.79362444,-16.40625,7.03125,107.6,31.32815141,84.70587921,8
04-Jun-2023 11:02:14.227,12.23444843,-,141.8,14.5037738,1603.22004395,194,83.13725281,207.84313965,5292,2665.79362444,-16.40625,7.03125,107.6,33.64875522,84.70587921,8
04-Jun-2023 11:02:14.328,12.16267109,-,141.8,14.5037738,1603.22004395,194,89.01960754,207.84313965,5421,2722.35834226,-16.40625,7.03125,107.6,33.64875522,84.31372833,12
04-Jun-2023 11:02:14.427,12.16267109,-,141.8,14.5037738,1603.22004395,194,92.15686035,219.21568298,5455.5,2722.35834226,-16.40625,7.03125,107.6,34.51898164,84.31372833,12
04-Jun-2023 11:02:14.528,12.13395977,-,141.8,14.5037738,1603.22004395,194,92.15686035,220,5455.5,2735.41173868,-16.40625,7.03125,107.6,34.51898164,84.31372833,12
04-Jun-2023 11:02:14.626,12.13395977,-,141.8,14.5037738,1603.22004395,194,87.84313965,220,5525.5,2735.41173868,-16.40625,-1.5625,107.6,33.93883069,84.31372833,12
04-Jun-2023 11:02:14.727,12.11242676,-,141.8,14.5037738,1603.22004395,194,87.84313965,211.37254333,5525.5,2818.08324934,-16.40625,-1.5625,107.6,33.79379295,48.62745285,12
04-Jun-2023 11:02:14.827,12.11242676,-,141.8,14.5037738,1603.22004395,194,89.01960754,211.37254333,5525.5,2818.08324934,-16.40625,-2.34375,111.2,33.79379295,48.62745285,12
04-Jun-2023 11:02:14.928,12.09448242,-,141.8,14.5037738,1626.97995605,194,89.01960754,221.56863403,5525.5,2819.53362672,-16.40625,-2.34375,111.2,33.79379295,76.47058868,12
04-Jun-2023 11:02:15.027,12.09448242,-,141.8,14.5037738,1626.97995605,194,92.15686035,221.56863403,5633.5,2819.53362672,-16.40625,-4.6875,111.2,34.51898164,76.47058868,12
04-Jun-2023 11:02:15.130,12.08730507,-,141.8,14.5037738,1626.97995605,194,90.58823395,222.35293579,5633.5,2829.68626838,-16.40625,-4.6875,111.2,33.79379295,84.31372833,12
04-Jun-2023 11:02:15.227,12.08012676,-,141.8,14.5037738,1626.97995605,194,90.58823395,215.29411316,5662.5,2844.19004218,-16.40625,-4.6875,111.2,33.50371748,49.80392075,12
04-Jun-2023 11:02:15.328,12.08012676,-,141.8,14.5037738,1626.97995605,194,89.01960754,215.29411316,5662.5,2844.19004218,-16.40625,-3.90625,111.2,33.50371748,49.80392075,12
04-Jun-2023 11:02:15.428,12.07294941,-,141.8,14.5037738,1626.97995605,194,89.01960754,218.8235321,5719.5,2842.7396648,-16.40625,-3.90625,111.2,33.64875522,49.80392075,12